DW6567 Weather Reports


time (UTC)temp
C
wind
direction
speed
KPH
gust
KPH
rain 1hr
cm
rain 24hr
cm
rain mn
cm
humidity
%
barometer
mb
20260508210025 12 247 3.2 16.1 0.00 0.00 0.00 55 1011.3
20260508203041 12 247 1.6 8.0 0.00 0.00 0.00 63 1011.3
20260508200021 12 202 1.6 6.4 0.00 0.00 0.00 69 1011.3
20260508193020 8 247 1.6 6.4 0.00 0.00 0.00 77 1011.6
20260508190020 8 247 3.2 9.7 0.00 0.00 0.00 80
20260508183020 7 270 3.2 16.1 0.00 0.00 0.00 80
20260508180035 -17 247 1.6 8.0 0.00 0.00 0.00 60
20260508173025 10 247 3.2 9.7 0.00 0.00 0.00 70 1011.5
20260508170015 10 247 1.6 8.0 0.00 0.00 0.00 62 1011.8
20260508163022 10 247 3.2 9.7 0.00 0.00 0.00 60 1011.8
20260508160043 11 247 3.2 8.0 0.00 0.00 0.00 57 1012.0
20260508153022 12 247 1.6 6.4 0.00 0.00 0.00 56 1011.8
20260508150038 10 270 1.6 4.8 0.00 0.00 0.00 65
20260508143021 -17 247 1.6 8.0 0.00 0.00 0.00 68
20260508140021 -17 0.0 4.8 0.00 0.00 0.00 70
20260508133021 8 247 1.6 6.4 0.00 0.00 0.00 75 1012.2
20260508130017 8 270 1.6 6.4 0.00 0.00 0.00 78 1012.3
20260508123021 6 247 1.6 6.4 0.00 0.00 0.00 84 1012.3
20260508120021 6 202 1.6 4.8 0.00 0.00 0.00 87 1012.4
20260508113021 5 247 3.2 6.4 0.00 0.00 0.00 89 1012.3
20260508110021 4 247 3.2 8.0 0.00 0.00 0.00 91 1011.9
20260508103025 -17 247 3.2 8.0 0.00 0.00 0.00 91
20260508100020 -17 247 3.2 8.0 0.00 0.00 0.00 90
20260508093041 3 247 1.6 6.4 0.00 0.00 0.00 89 1011.5
20260508090022 3 0.0 0.0 0.00 0.00 0.00 88 1011.1
20260508083102 4 0.0 1.6 0.00 0.00 0.00 89 1011.2
20260508080020 4 0.0 4.8 0.00 0.00 0.00 90 1011.4
20260508073020 5 0.0 0.0 0.00 0.00 0.00 90 1011.4
20260508070021 5 0.0 3.2 0.00 0.00 0.00 87
20260508063021 -17 247 3.2 8.0 0.00 0.00 0.00 84
20260508060020 -17 247 1.6 9.7 0.00 0.00 0.00 81
20260508053017 5 0.0 4.8 0.00 0.00 0.00 80 1010.4
20260508050022 7 67 1.6 4.8 0.00 0.00 0.00 56 1010.3
20260508043017 7 67 1.6 4.8 0.00 0.00 0.00 56 1010.0
20260508040026 6 67 3.2 6.4 0.00 0.00 0.00 57 1010.0
20260508033022 7 67 3.2 4.8 0.00 0.00 0.00 58 1010.1
20260508030022 7 67 3.2 4.8 0.00 0.00 0.00 60 1010.1
20260508023022 -17 0.0 3.2 0.00 0.00 0.00 59
20260508020022 -17 0.0 0.0 0.00 0.00 0.00 54
20260508013022 -17 0.0 0.0 0.00 0.00 0.00 51
20260508010021 9 0.0 0.0 0.00 0.00 0.00 50 1009.4
20260508003021 10 0.0 1.6 0.00 0.00 0.00 49 1009.0
20260508000016 10 270 1.6 6.4 0.00 0.00 0.00 46 1008.7
20260507233022 11 292 1.6 6.4 0.00 0.00 0.00 44 1008.5
20260507230021 12 292 1.6 8.0 0.00 0.00 0.00 43 1008.3
20260507223041 12 270 4.8 9.7 0.00 0.00 0.00 40 1008.2
20260507220021 -17 247 4.8 11.3 0.00 0.00 0.00 40
20260507213025 -17 292 4.8 11.3 0.00 0.00 0.00 42